Terug naar catalogus

STARLINK-31679

ActiefCommunicatieVLEO
NORAD 59519·PAYLOAD·🇺🇸 United States

Gelanceerd Apr 17, 2024 vanaf Cape Canaveral Space Force Station

Loading…

Volgende Passages (komende 24 uur)

TLE

VersSource: CelesTrak SupGP

Epoch: Sep 15, 2026, 02:51 UTC

1 59519C 24073J   26258.11923611  .00035702  00000+0  12930-2 0  2583
2 59519  43.0029 317.6464 0001403 268.1634 269.8202 15.27564453    10

Volg STARLINK-31679 in realtime met AllMySat

Download on the App Store